User: anonymous   Login
Location: Unspecified
(0.0000°N, 0.0000°E)
Time: 01:15:36
(UTC+02:00)
Language:

Milstar 3 Cent rocket - Orbit

View from above orbital plane
View from above orbital plane
View from above satellite
View from above satellite

Ground track
Ground track

The orbit data is extracted from the following two-line orbital elements,

1 25725U 99023B   15184.37919551 0.00000000  00000-0  00000-0 0    06
2 25725  28.3051 213.3774 2386418 176.9905 183.0089  9.67201685    01
Epoch (UTC): 03 July 2015 09:06:02
Eccentricity: 0.2386418
inclination: 28.3051°
perigee height: 706 km
apogee height: 5147 km
right ascension of ascending node: 213.3774°
argument of perigee: 176.9905°
revolutions per day: 9.67201685
mean anomaly at epoch: 183.0089°
orbit number at epoch: 0

The dashed part of the orbit path shows where the satellite is in the earth's shadow,  

DLR